Home   Weather   Peoria   Past weeks

Flag for USA Past Weather in Peoria, Illinois, USA — Yesterday and Last 2 Weeks

Now
74 °F

Clear.


Feels Like: 76 °F
Forecast: 65 / 80 °F
Wind: 5 mph from Northwest

Location: Greater Peoria Regional Airport

Current Time: Jul 23, 2017 at 11:43:25 pm

Latest Report: Jul 23, 2017 at 10:54 pm


Visibility: 10 mi

Pressure: 29.87 "Hg

Humidity: 71%

Dew Point: 64 °F

Location of PeoriaLocation

Past Weather in Peoria — Graph

°F

Peoria Temperature Yesterday

Maximum temperature yesterday: 87 °F (at 3:37 pm)
Minimum temperature yesterday: 70 °F (at 6:20 am)
Average temperature yesterday: 78 °F

High & Low Weather Summary for the Past Weeks

 TemperatureHumidityPressure
High95 °F (Jul 20, 4:54 pm)100% (Jul 11, 3:54 am)30.18 "Hg (Jul 11, 3:54 am)
Low59 °F (Jul 15, 4:54 am)43% (Jul 17, 1:54 pm)29.76 "Hg (Jul 22, 6:54 pm)
Average78 °F78%29.96 "Hg
* Reported Jul 8 9:54 pm — Jul 23 9:54 pm, Peoria. Weather by CustomWeather, © 2017

Note: Actual official high and low records may vary slightly from our data, if they occured in-between our weather recording intervals... More about our weather records

Advertising

Peoria Weather History for the Previous 24 Hours

Scroll right to see more
 ConditionsComfort  
Time TempWeatherWind HumidityBarometerVisibility
9:54 pm
Sun, Jul 23
76 °FClear.6 mph64%29.85 "Hg10 mi
8:54 pm78 °FClear.6 mph64%29.83 "Hg10 mi
7:54 pm81 °FSunny.6 mph62%29.82 "Hg10 mi
6:54 pm85 °FSunny.7 mph55%29.82 "Hg10 mi
5:54 pm88 °FSunny.8 mph57%29.79 "Hg10 mi
4:54 pm90 °FPassing clouds.8 mph52%29.78 "Hg10 mi
3:54 pm90 °FSunny.10 mph52%29.80 "Hg10 mi
2:54 pm90 °FPassing clouds.12 mph52%29.81 "Hg10 mi
1:54 pm89 °FPassing clouds.12 mph53%29.82 "Hg10 mi
12:54 pm89 °FSunny.10 mph57%29.84 "Hg10 mi
11:54 am87 °FScattered clouds.9 mph65%29.84 "Hg10 mi
10:54 am85 °FBroken clouds.9 mph72%29.84 "Hg10 mi
9:54 am82 °FPartly sunny.9 mph82%29.84 "Hg10 mi
8:54 am80 °FSunny.7 mph85%29.83 "Hg10 mi
7:54 am78 °FScattered clouds.9 mph93%29.83 "Hg10 mi
6:54 am77 °FBroken clouds.9 mph96%29.84 "Hg9 mi
6:43 am77 °FBroken clouds.7 mph96%29.86 "Hg10 mi
5:54 am76 °FPassing clouds.7 mph100%29.83 "Hg10 mi
4:54 am77 °FClear.7 mph96%29.81 "Hg10 mi
3:54 am77 °FPassing clouds.3 mph96%29.81 "Hg10 mi
2:54 am77 °FPartly cloudy.3 mph96%29.79 "Hg10 mi
1:54 am76 °FPassing clouds.No wind100%29.79 "Hg10 mi
12:54 am78 °FClear.No wind96%29.80 "Hg10 mi
11:54 pm
Sat, Jul 22
79 °FPassing clouds.No wind94%29.79 "Hg10 mi
Weather by CustomWeather, © 2017

See weather overviewHow to use our weather pages